Regional Weather Roundup
Issued by NWS Northern Indiana

Home | Current Version | Previous Version | Graphics & Text | Print | Product List | Glossary On
Versions: 1 2 3 4 5 6 7 8 9 10 11 12 13 14 15 16 17 18 19 20 21 22 23 24 25 26 27 28 29 30 31 32 33 34 35 36 37 38 39 40 41 42 43 44 45 46 47 48 49 50
000
ASUS43 KIWX 220610
RWRIWX

KIWX WEATHER ROUNDUP
NATIONAL WEATHER SERVICE NORTHERN INDIANA
200 AM EDT TUE AUG 22 2017

NOTE: "FAIR" INDICATES FEW OR NO CLOUDS BELOW 12,000 FEET WITH NO
SIGNIFICANT WEATHER AND/OR OBSTRUCTIONS TO VISIBILITY.

* THESE STATIONS ARE NOT UNDER NWS QUALITY CONTROL. THEY ALSO MAY NOT
  REPORT WEATHER SUCH AS PRECIPITATION OR FOG.

INZ001>027-220700-
NORTHERN INDIANA

CITY           SKY/WX    TMP DP  RH WIND       PRES   REMARKS
GARY*          RAIN      72  70  92 S5        29.89F
VALPARAISO     LGT RAIN  73  71  93 W9        29.94S FOG
6HR MIN TEMP:  73; 6HR MAX TEMP:  82; 6HR PCP:  0.12;

MICHIGAN CITY* HVY RAIN  70  70 100 SW7G18    29.96R
LAPORTE*       TSTM      72  69  90 W13       29.96R
6HR MIN TEMP:  72; 6HR MAX TEMP:  80;

KNOX*          CLOUDY    72  68  88 SW8       29.92F
SOUTH BEND     CLOUDY    73  71  93 SW9       29.93F
6HR MIN TEMP:  73; 6HR MAX TEMP:  81;

GOSHEN         CLOUDY    73  67  81 SW9       29.94F
6HR MIN TEMP:  73; 6HR MAX TEMP:  80;

MONTICELLO*    CLOUDY    73  69  87 S7        29.94F
6HR MIN TEMP:  73; 6HR MAX TEMP:  81;

LOGANSPORT*    CLOUDY    70  68  94 S7        29.96F
ROCHESTER*     CLOUDY    75  68  78 SW7       29.95F
WARSAW*        CLOUDY    73  68  83 SW5       29.95F
AUBURN*        CLEAR     73  68  83 SW6       29.97F
FORT WAYNE     MOCLDY    71  68  90 SW8       29.98F
6HR MIN TEMP:  71; 6HR MAX TEMP:  82;

HUNTINGTON*    CLEAR     72  71  96 S5        29.97F
6HR MIN TEMP:  72; 6HR MAX TEMP:  79;

PERU/GRISSOM   CLOUDY    72  71  95 S8        29.96F
6HR MIN TEMP:  72; 6HR MAX TEMP:  80;

MARION*        CLEAR     70  68  94 S7        29.99F FOG

$$
INZ028>050-220700-
CENTRAL INDIANA

CITY           SKY/WX    TMP DP  RH WIND       PRES   REMARKS
LAFAYETTE      MOCLDY    72  69  90 VRB3      29.94F
6HR MIN TEMP:  72; 6HR MAX TEMP:  79;

KOKOMO*        CLOUDY    72  69  90 S8        29.99F
6HR MIN TEMP:  71; 6HR MAX TEMP:  78;

MUNCIE*        CLEAR     76  68  76 S7        30.00F
6HR MIN TEMP:  76; 6HR MAX TEMP:  81;

INDIANAPOLIS   CLOUDY    73  70  90 S8        29.99F
6HR MIN TEMP:  73; 6HR MAX TEMP:  77;


$$
MIZ043>046-050>051-056>058-064>065-071>073-077>080-220700-
SOUTHWEST LOWER MICHIGAN

CITY           SKY/WX    TMP DP  RH WIND       PRES   REMARKS
BATTLE CREEK   CLOUDY    72  71  97 S10       29.92F
6HR MIN TEMP:  69; 6HR MAX TEMP:  80; 6HR PCP:  0.32;

BENTON HARBOR  RAIN      76  68  76 SW13G23   29.91R
6HR MIN TEMP:  77; 6HR MAX TEMP:  82; 6HR PCP:  0.01;

COLDWATER*     CLEAR     73  70  92 SW5       29.94F
6HR MIN TEMP:  73; 6HR MAX TEMP:  80;

HILLSDALE*     MOCLDY    72  68  88 S6        29.96F
HOLLAND        MOCLDY    71  69  93 S6        29.87F
6HR MIN TEMP:  69; 6HR MAX TEMP:  77; 6HR PCP:  0.08;

GRAND RAPIDS   MOCLDY    71  70  96 S9        29.88F
6HR MIN TEMP:  69; 6HR MAX TEMP:  80; 6HR PCP:  0.01;

KALAMAZOO      CLOUDY    74  70  87 S14       29.91F
6HR MIN TEMP:  70; 6HR MAX TEMP:  81; 6HR PCP:  0.09;

STURGIS*       CLEAR     71  69  94 S6        29.93F
6HR MIN TEMP:  71; 6HR MAX TEMP:  79;

THREE RIVERS*  FAIR      74  70  87 S8        29.92F
6HR MIN TEMP:  74; 6HR MAX TEMP:  81;


$$
OHZ001>008-015>018-024>025-220700-
NORTHWEST OHIO

CITY           SKY/WX    TMP DP  RH WIND       PRES   REMARKS
DEFIANCE       PTCLDY    73  68  84 S8        29.96F
6HR MIN TEMP:  73; 6HR MAX TEMP:  82;

FINDLAY        CLEAR     73  68  84 S8        29.97F
6HR MIN TEMP:  72; 6HR MAX TEMP:  79;

TOLEDO EXPRESS PTCLDY    74  70  87 SW6       29.96F
6HR MIN TEMP:  74; 6HR MAX TEMP:  82;

TOLEDO METCALF PTCLDY    74  70  87 SW7       29.97F
6HR MIN TEMP:  74; 6HR MAX TEMP:  82;

LIMA           CLEAR     74  70  87 S9        30.00F
6HR MIN TEMP:  73; 6HR MAX TEMP:  78;


$$
AND FOR LAKE MICHIGAN COASTAL AND OPEN LAKE BUOY OBSERVATIONS

STATION/POSITION TEMP    WIND        PRES    VSBY  WAVE
                 AIR SEA DIR/SP/G                  HT/PER
                 (F)     (DEG/KT/KT) (MB)    (MI)  (FT/S)
CALUMET HARBOR    72     200/ 11/ 14 1011.0F
MICHIGAN CITY     69     230/ 25/ 28   N/A
BURNS HARBOR      70     220/ 12/ 20 1013.5S
SAINT JOSEPH      76     210/ 31/ 41 1012.9
SOUTH LAKE BUOY   74 72  230/  8/ 10 1010.5F         1/ 4
4 MI NW BRIDGMAN  72 74  230/ 27/ 37 1013.1          3/ 3
MICHIGAN CITY     71 74  210/ 16/ 19   N/A           3/ 3

$$
&&




USA.gov is the U.S. government's official web portal to all federal, state and local government web resources and services.